Theta_e
323 322 322 322 323 323 323 323 324 325 325 325 326 328 329 330 329 329 329 328 328 328 328 328 330 330 330 330 330 330 329 328 327 327 326 326 326 326 326 326 326 326 325 325 325 325 326 326 326 326 326 327 326 325 323 321 321 322 324 324 323 323 323
323 322 321 322 322 323 323 323 323 324 325 327 328 330 330 330 330 329 328 326 326 327 327 326 327 329 328 328 329 329 330 329 329 329 328 327 326 326 326 326 326 326 326 326 325 325 325 325 326 326 326 327 327 327 327 325 322 320 321 323 324 324 324
323 322 322 322 322 323 323 323 325 326 328 329 330 331 331 330 330 330 329 326 324 325 326 326 327 329 328 326 327 328 327 327 328 330 330 330 329 328 328 328 328 328 327 327 326 326 325 326 326 327 326 327 327 327 326 326 324 321 320 322 323 324 324
323 322 322 322 322 323 324 325 326 328 329 330 330 331 331 332 332 331 329 326 323 324 325 326 328 329 328 327 327 325 323 323 326 328 330 331 330 330 329 329 329 329 329 328 328 327 327 327 327 327 327 327 327 326 326 325 325 324 323 323 323 323 323
323 323 323 323 323 324 324 325 327 328 329 330 331 332 332 333 332 330 326 323 320 322 324 325 325 326 326 326 326 323 321 322 325 326 328 329 329 329 329 329 329 329 329 329 329 328 328 328 328 328 327 327 327 327 326 325 325 325 324 324 324 324 324
323 323 323 323 324 324 325 325 326 327 328 330 332 332 332 332 330 325 321 320 319 321 324 323 323 323 323 323 324 324 323 322 322 323 324 326 326 326 327 327 328 329 329 329 329 329 328 328 327 328 327 327 327 327 326 326 326 326 326 326 325 325 325
323 324 323 324 324 325 325 326 326 327 328 330 331 331 331 330 326 322 319 318 318 320 321 319 318 318 319 320 323 324 323 321 320 320 322 324 325 326 326 326 327 327 327 327 327 327 326 326 326 326 327 327 327 327 327 327 326 326 326 327 326 326 326
324 323 324 324 324 325 325 326 326 328 329 330 330 331 331 328 325 322 319 317 317 318 317 315 315 316 318 319 321 320 319 319 319 319 320 323 324 325 325 326 325 325 326 326 326 326 325 325 325 325 326 326 326 326 326 326 326 325 325 326 325 325 324
325 323 324 324 324 325 325 325 326 328 329 329 329 331 330 328 325 322 319 318 317 317 316 314 313 314 315 316 317 317 316 317 317 317 318 320 322 323 323 324 324 324 325 325 325 325 325 325 325 325 325 324 324 325 325 325 325 323 323 323 324 323 322
326 324 324 324 324 325 325 325 326 328 329 329 330 332 330 329 328 324 320 318 317 316 316 315 314 313 313 313 314 314 314 315 316 317 317 317 320 323 323 322 322 323 324 325 324 324 325 324 324 324 324 323 323 323 324 324 323 321 320 320 320 320 319
325 324 324 324 324 325 326 326 327 328 330 330 332 332 329 329 329 326 323 320 318 317 317 316 315 314 312 313 313 313 313 314 315 317 319 319 320 322 322 321 321 322 323 323 323 323 323 323 324 323 323 323 323 323 322 322 320 318 317 317 317 317 317
325 324 325 324 324 325 326 326 327 329 330 330 331 331 329 329 328 328 326 323 320 317 317 317 315 314 313 312 313 312 312 313 313 315 319 320 321 321 319 319 319 320 321 320 319 319 319 320 320 320 321 321 321 320 319 318 316 315 315 316 315 315 315
324 324 324 324 324 324 325 326 327 329 330 329 330 331 330 328 328 328 328 326 322 319 318 317 315 314 313 312 312 311 311 312 312 312 315 317 319 318 315 314 313 314 316 316 316 316 316 316 316 316 315 315 314 313 313 313 313 314 314 315 315 315 315
324 325 325 324 325 326 326 326 327 329 330 329 329 331 330 329 328 328 328 327 325 321 319 318 316 315 315 313 313 311 310 310 310 310 310 310 312 311 309 308 307 307 310 311 312 313 312 312 312 312 310 309 308 309 310 310 311 313 315 315 315 314 315
323 324 324 324 325 326 327 326 327 328 329 328 329 330 330 330 328 328 328 328 326 323 321 319 317 316 315 315 313 311 310 309 309 309 307 305 305 305 305 304 304 304 305 305 306 307 307 306 306 306 305 305 306 308 310 310 311 313 315 315 315 315 315
322 323 323 324 325 326 326 325 327 328 328 328 329 329 330 330 329 328 329 328 327 324 323 320 318 317 316 315 313 311 310 309 308 307 305 303 303 303 303 303 303 302 303 302 302 302 302 301 301 301 302 304 307 309 311 312 312 313 314 314 314 314 314
322 322 322 323 324 324 325 325 326 328 329 330 330 330 329 329 329 329 329 328 327 325 324 321 319 317 315 314 312 310 309 308 306 305 304 303 302 302 302 302 302 301 301 301 301 300 300 300 300 299 300 302 304 306 309 312 313 313 314 314 314 314 314
321 322 322 322 323 323 324 325 325 328 330 331 331 331 330 329 329 329 329 328 327 325 324 322 319 317 315 313 311 309 308 306 305 305 304 302 301 301 301 301 301 300 300 300 300 299 300 299 299 299 299 299 300 300 303 306 307 308 308 309 309 310 310
321 322 321 321 322 323 324 324 325 328 329 330 332 332 332 332 331 331 329 328 327 326 325 322 318 316 314 312 310 308 307 306 305 304 304 302 301 301 300 300 300 300 299 300 299 299 299 299 299 299 299 299 300 300 300 300 300 300 300 300 300 301 301
321 321 321 322 322 322 323 323 324 326 327 330 333 333 333 333 333 331 329 328 327 326 325 323 319 315 313 312 310 308 307 306 305 305 304 303 301 301 300 300 300 299 299 299 299 299 299 299 299 299 299 300 300 299 299 298 297 297 297 296 296 296 296
320 321 321 321 322 323 323 323 324 326 327 331 334 333 333 333 333 331 329 328 327 326 325 323 319 315 313 311 310 308 307 307 306 306 305 304 302 301 300 299 299 299 299 299 298 299 298 298 299 299 299 299 299 298 298 298 297 297 296 296 296 296 295
320 321 321 322 322 322 323 323 325 326 329 333 334 334 334 334 333 331 329 328 327 327 326 324 319 315 313 311 310 309 308 307 308 308 306 305 305 303 300 299 299 299 298 298 298 298 298 298 298 298 298 298 298 298 298 298 297 297 296 296 296 296 295
321 321 322 322 322 322 321 323 325 326 330 334 335 335 335 335 333 332 331 330 328 327 326 324 320 315 312 311 310 309 308 309 309 309 308 309 308 306 301 299 298 298 298 298 298 298 298 298 298 298 298 298 298 298 298 297 297 296 296 297 297 295 294
324 322 322 322 322 322 322 323 326 328 330 334 335 336 335 334 333 333 332 331 329 327 326 324 320 315 311 310 309 309 309 309 310 309 310 311 311 308 303 299 298 297 297 298 298 297 297 297 297 297 298 297 297 297 297 297 296 296 296 297 297 296 297
329 326 325 324 324 324 324 325 329 330 330 333 335 335 335 334 334 334 333 331 329 327 326 324 321 315 311 309 309 308 309 309 310 310 310 311 312 310 305 299 297 297 297 297 297 297 297 297 297 297 297 297 297 296 296 296 296 296 296 296 297 300 302
330 329 329 327 326 327 327 329 331 331 331 333 334 336 336 335 334 334 334 332 329 327 326 325 321 314 310 309 308 309 309 310 311 312 311 311 310 310 307 302 297 297 297 297 297 297 297 297 296 296 296 296 296 296 296 296 296 297 297 297 300 303 304
330 331 331 330 329 329 330 331 332 332 332 334 336 336 336 335 335 335 334 332 330 327 326 324 319 313 310 308 308 309 310 311 313 313 312 312 310 310 310 305 298 297 297 297 297 297 296 296 296 296 296 296 296 296 296 297 298 298 299 300 302 302 302
332 332 333 333 331 331 331 331 333 334 335 335 336 336 336 336 335 334 334 333 330 327 325 321 315 311 309 307 308 309 309 311 312 312 312 313 312 309 306 302 298 297 297 297 296 297 297 296 296 297 297 297 296 296 296 297 299 300 301 302 301 301 300
333 333 333 334 333 332 332 332 334 336 336 335 336 336 336 336 335 335 334 332 330 327 324 319 313 309 307 307 307 308 309 310 309 310 312 312 308 304 300 298 297 297 297 297 297 297 297 297 297 297 297 297 296 296 297 298 299 300 301 301 300 299 299
334 334 333 333 333 333 332 332 334 336 336 335 336 337 337 336 335 335 334 333 330 327 323 317 312 308 306 307 307 308 309 308 307 308 309 306 301 298 297 297 297 297 297 297 297 297 297 296 297 297 297 297 296 296 297 298 298 299 299 300 300 299 299
334 334 333 333 333 333 333 333 333 335 336 336 336 337 337 337 335 334 333 331 328 326 322 316 311 308 307 307 307 309 309 308 306 307 308 305 299 297 299 301 299 296 296 297 296 296 297 297 297 297 297 297 297 297 297 298 298 298 298 299 299 299 299
333 334 333 334 333 333 334 334 333 334 335 336 337 337 338 337 335 334 332 329 327 325 322 316 312 310 307 306 309 311 310 309 308 309 310 307 302 300 303 305 303 298 296 297 297 297 297 297 297 298 297 297 297 298 298 299 299 299 298 299 299 299 299
332 333 333 333 332 333 334 334 334 334 335 336 337 338 338 337 336 334 331 328 327 324 320 316 313 310 308 309 311 312 310 309 309 310 311 309 306 304 305 306 305 300 297 296 297 296 297 297 298 298 298 298 298 298 298 299 300 300 299 299 299 299 299
332 332 333 333 332 332 333 334 334 334 335 337 338 338 338 336 332 329 328 327 326 324 321 318 313 310 310 313 313 311 310 310 310 311 311 310 309 307 307 307 306 303 298 296 296 297 297 298 299 299 299 299 299 299 299 299 299 300 299 299 298 299 299
332 332 333 333 332 333 333 334 334 334 335 337 337 336 336 332 326 326 327 328 326 324 321 318 312 310 313 315 313 310 309 310 311 311 311 311 310 309 308 308 307 305 301 297 296 297 298 299 299 300 300 300 300 299 299 299 299 299 299 298 298 298 299
332 332 333 333 333 333 333 334 335 335 336 337 336 335 332 327 325 326 327 328 325 321 317 314 312 312 314 314 311 310 310 311 312 312 311 311 309 309 309 308 308 306 301 297 296 298 299 299 300 300 300 300 300 299 299 299 299 299 299 298 298 298 298
333 333 333 333 333 334 334 334 335 336 335 333 332 330 328 325 326 328 328 328 325 319 315 314 313 314 314 312 309 308 310 311 310 309 310 310 309 309 309 309 308 304 298 295 297 299 299 299 300 300 300 300 300 300 299 298 298 298 298 298 298 298 298
Wind_Speed
15 15 16 17 17 17 17 17 17 17 16 16 16 16 16 16 16 17 17 16 16 16 16 15 15 14 14 14 13 13 13 12 12 12 11 10 11 11 10 9 9 9 9 9 8 6 6 9 10 11 13 14 13 12 10 5 2 2 3 5 6 7 8
16 16 16 17 17 17 17 18 18 17 17 16 16 15 15 15 15 16 15 15 15 15 15 14 13 12 11 11 11 11 11 11 11 10 9 9 8 7 6 6 6 7 7 8 8 7 6 8 10 11 11 12 14 13 9 6 5 4 2 2 3 3 4
17 17 17 17 18 18 18 18 17 17 17 16 16 15 14 14 15 14 14 14 14 13 12 11 11 9 9 9 9 9 9 9 9 8 8 7 6 5 4 5 5 5 6 7 7 8 7 7 9 10 10 11 15 16 11 6 6 7 5 4 2 0 2
17 17 17 18 18 18 18 18 17 17 16 16 15 15 14 14 13 13 13 13 12 11 10 9 9 8 8 8 8 8 8 8 8 8 6 5 5 4 4 4 5 5 6 6 6 7 6 6 7 9 9 11 14 17 15 10 6 5 4 2 1 2 3
16 16 17 18 18 17 17 17 17 17 16 15 15 14 14 12 11 11 11 10 10 10 9 10 9 8 8 8 7 8 8 8 9 8 7 6 5 5 5 5 5 5 4 4 5 6 6 6 7 7 6 8 11 14 15 13 9 7 6 4 2 1 2
14 15 16 17 17 16 16 16 16 16 16 15 15 13 12 11 10 9 10 9 10 10 9 9 9 9 8 8 7 8 9 9 9 8 7 7 7 7 7 6 6 5 5 5 5 5 5 5 5 5 5 6 8 10 12 13 12 12 12 9 7 6 5
14 16 16 17 17 15 15 15 15 15 15 14 13 12 10 9 9 9 9 10 10 9 9 10 10 10 9 9 8 8 9 10 9 8 7 7 7 7 7 7 7 7 6 6 5 5 5 5 6 7 6 6 8 8 9 10 10 10 10 9 7 6 5
15 16 16 15 15 14 14 15 15 14 14 13 12 11 8 7 8 8 9 10 10 9 10 10 10 10 10 10 10 10 11 10 8 8 7 6 6 6 6 6 5 6 6 5 5 4 5 5 6 7 7 7 8 9 8 8 9 10 10 8 6 6 6
15 16 16 15 15 14 14 15 14 13 13 12 11 9 7 6 7 8 9 10 10 9 10 10 10 10 9 10 10 10 10 9 8 8 7 6 6 6 5 5 4 4 5 4 4 4 4 4 4 4 4 5 6 7 8 8 9 10 10 8 8 8 8
16 16 16 15 15 15 14 13 13 12 12 11 9 8 6 5 6 7 9 9 9 8 9 9 9 9 8 9 9 10 10 8 7 8 7 7 7 6 5 4 4 4 4 3 3 3 3 3 2 2 2 3 3 4 6 8 9 9 9 10 10 9 7
17 16 16 16 16 16 14 13 12 12 11 10 8 7 5 5 5 6 7 8 7 7 8 8 7 7 7 8 8 9 9 7 6 6 6 6 6 6 5 5 4 5 4 3 3 3 2 2 2 1 1 2 2 2 5 8 9 8 8 9 9 6 5
18 18 17 17 17 17 15 14 13 11 11 9 8 6 5 4 5 5 6 6 5 5 6 6 6 6 6 7 7 8 7 6 5 5 4 4 4 4 3 4 4 4 4 2 2 2 1 1 1 1 1 1 1 1 3 5 8 8 6 6 6 4 3
19 19 18 18 18 17 16 14 13 12 11 10 9 6 5 3 4 4 4 4 3 3 4 5 5 5 5 6 6 6 6 5 5 5 3 2 2 2 2 3 3 4 3 2 2 2 1 0 0 2 2 1 1 1 2 3 6 8 6 4 3 3 3
20 20 19 18 17 17 16 15 14 13 12 11 9 7 5 4 2 2 2 1 1 1 2 3 4 4 4 5 5 4 4 4 4 4 3 3 3 3 3 3 4 4 3 3 2 2 2 1 2 2 2 2 1 1 2 2 5 7 6 4 2 2 2
22 21 21 20 18 17 17 16 16 14 13 11 10 8 7 6 4 2 1 1 2 2 0 2 3 3 3 4 4 3 2 2 3 3 3 4 5 4 3 3 4 5 4 2 2 2 2 2 1 1 1 1 1 2 2 2 4 6 5 4 3 2 1
24 23 23 22 20 19 18 18 17 16 14 12 11 10 9 8 6 4 4 4 4 3 2 0 1 1 2 2 2 2 1 1 2 2 2 3 4 3 2 2 3 4 3 2 2 3 3 3 3 2 2 2 2 2 2 2 3 4 3 2 1 1 3
26 25 24 23 22 21 20 20 19 17 16 14 12 12 11 10 9 7 7 7 6 5 4 2 1 1 1 2 2 2 1 1 1 1 1 2 3 2 1 1 3 3 2 1 2 3 3 3 3 3 3 3 2 1 1 1 2 2 1 2 3 4 5
27 26 25 24 23 22 21 20 20 19 18 16 14 14 14 13 12 10 10 9 8 6 5 4 3 2 3 3 3 3 2 1 1 1 1 1 2 2 1 1 2 2 1 0 1 3 3 3 4 4 4 4 3 2 2 1 1 1 2 3 4 5 7
29 28 27 25 24 23 22 21 21 21 19 17 16 16 15 14 14 13 12 12 10 8 6 5 4 4 4 4 4 4 3 3 2 2 1 2 2 2 2 2 2 2 1 1 2 3 4 4 5 5 5 6 6 4 4 4 4 3 3 4 5 6 7
30 29 28 27 26 24 23 22 22 22 20 18 18 18 17 16 15 15 15 13 11 9 7 6 5 5 5 6 6 6 4 4 3 3 2 3 3 4 4 3 3 3 2 3 4 5 5 5 5 5 6 6 6 5 4 5 5 5 6 7 8 9 11
31 30 29 28 27 26 25 24 23 23 22 20 19 19 19 18 17 17 16 15 12 11 9 8 7 7 7 7 7 7 6 5 4 4 3 3 3 4 4 4 3 3 4 5 5 6 5 5 5 5 5 5 5 4 4 5 5 6 7 8 10 11 13
31 31 30 30 30 29 27 26 25 24 23 22 22 21 20 20 19 18 18 16 14 12 12 10 9 9 9 9 9 8 7 6 5 4 3 3 4 4 3 4 4 4 5 5 6 6 5 5 5 4 5 5 5 5 5 5 6 8 9 10 11 13 14
32 32 31 32 32 31 30 29 27 26 25 24 24 23 23 22 21 20 19 18 16 15 14 13 12 11 11 10 10 9 8 7 6 5 4 3 4 4 3 3 4 4 5 6 6 6 6 5 5 5 5 6 7 7 8 9 10 12 13 13 14 15 15
33 33 33 33 33 33 33 32 29 27 27 27 26 25 25 25 24 22 21 20 19 17 16 15 14 13 13 12 11 10 9 8 7 5 5 3 2 4 3 3 4 5 5 5 6 6 6 6 5 6 6 7 9 10 12 12 12 13 14 14 15 14 12
34 34 34 34 33 33 33 33 31 29 29 29 29 28 27 27 26 25 24 23 21 20 18 17 16 15 15 14 12 11 11 10 9 7 5 5 3 2 3 3 4 6 6 5 6 6 6 5 5 6 7 8 10 11 12 13 13 14 14 12 11 10 10
34 34 34 34 34 33 33 34 32 31 30 31 30 30 29 29 28 27 26 25 24 22 20 18 17 16 16 15 13 12 12 11 11 9 6 6 5 1 1 2 4 6 6 6 5 5 5 4 5 6 7 8 9 11 11 12 13 12 11 10 9 9 10
34 34 34 33 33 33 34 34 34 32 31 32 32 32 32 31 31 29 28 27 25 23 21 19 18 18 17 15 14 13 13 12 12 10 9 8 6 3 2 1 4 6 6 6 5 4 4 4 4 5 6 7 9 10 10 9 10 10 9 8 8 9 11
34 34 34 33 33 34 34 35 35 34 33 34 34 34 34 34 33 31 29 28 26 23 21 19 19 19 18 16 15 14 13 12 11 11 10 8 6 4 3 3 7 7 6 6 4 3 3 3 4 4 6 8 10 10 9 8 9 9 8 8 8 9 12
34 34 35 35 34 34 35 35 36 36 35 36 36 36 36 35 34 32 31 29 27 23 21 20 21 20 19 18 17 15 13 13 12 12 10 8 6 5 4 6 8 7 6 5 4 2 2 4 4 5 7 10 10 10 9 9 9 8 8 9 10 11 14
34 34 35 37 37 36 35 36 37 38 38 38 39 39 38 37 36 34 32 31 28 23 21 22 22 21 21 20 18 16 15 13 13 12 10 8 8 8 8 8 7 6 6 4 2 1 2 4 4 5 7 9 10 10 9 9 8 8 8 9 9 11 12
34 35 36 37 38 38 37 37 38 40 40 40 41 40 39 38 38 36 34 31 27 22 21 22 22 22 22 20 18 16 15 13 13 14 11 10 11 11 10 8 7 5 5 3 2 0 2 3 4 5 7 9 10 11 10 10 10 11 10 8 7 9 10
32 34 36 38 38 39 39 39 39 40 41 42 42 42 42 42 41 39 36 31 24 21 22 22 22 23 22 20 18 16 14 14 16 16 12 12 14 13 11 9 7 6 4 3 2 1 2 3 4 5 7 9 11 12 12 12 12 13 13 10 9 10 11
32 33 34 36 38 40 40 40 39 40 42 43 45 46 45 46 46 42 36 29 24 22 23 23 23 24 22 19 17 16 15 16 18 17 14 14 16 15 12 10 8 6 4 3 2 1 2 3 4 5 7 10 12 12 13 12 11 12 12 12 12 13 12
32 34 35 35 37 40 41 41 41 42 44 46 49 50 49 49 46 39 32 27 24 23 23 22 24 25 21 17 16 16 17 18 18 18 16 16 17 16 14 11 9 7 4 3 2 1 2 2 4 6 7 9 10 11 13 12 10 10 11 13 15 14 12
33 33 36 37 39 41 42 42 42 44 46 49 51 51 51 48 41 33 28 26 25 24 24 23 24 23 19 16 15 16 19 20 19 19 19 18 18 17 15 13 11 8 5 3 2 1 1 2 4 5 6 7 9 10 11 11 11 12 14 16 16 15 14
36 37 38 40 42 43 43 44 45 46 49 52 53 53 50 45 36 28 26 27 27 28 28 25 24 21 18 15 15 17 20 21 20 21 21 20 18 17 16 15 13 9 6 4 3 1 1 2 4 4 5 6 8 9 11 12 13 14 16 17 17 17 17
39 40 41 43 44 44 45 46 46 48 50 52 52 50 45 37 29 26 28 29 29 31 29 25 23 20 17 15 17 20 22 20 18 19 19 19 18 18 18 17 13 9 6 5 4 3 2 4 4 4 5 6 8 10 12 14 15 15 16 17 18 18 19
Wind_Direction
120 115 115 121 125 126 124 121 118 114 108 103 98 93 89 84 80 77 75 75 74 72 69 67 66 64 62 63 64 66 69 72 73 73 76 80 81 82 80 68 57 53 54 63 75 87 84 65 53 49 50 54 56 50 48 59 64 37 56 74 75 74 69
128 123 120 121 123 124 123 120 118 115 111 105 98 93 90 86 82 77 72 67 64 62 62 63 65 64 60 58 60 63 62 63 65 68 72 75 74 75 68 51 46 49 55 62 68 75 76 62 47 44 52 60 58 48 35 46 70 69 95 101 68 57 40
135 132 128 126 125 126 124 121 119 115 111 106 101 97 91 86 80 73 65 58 54 54 55 56 60 61 59 61 64 64 61 59 60 60 65 69 67 64 49 43 51 55 58 59 57 55 53 49 40 39 51 60 56 51 42 49 82 85 99 124 123 319 339
141 139 136 133 131 129 127 125 123 119 113 108 103 95 86 79 73 67 59 51 49 53 53 51 54 54 54 62 65 63 64 67 67 62 62 67 66 61 43 40 49 43 40 38 34 31 23 26 29 34 56 64 59 61 60 63 85 92 95 113 202 265 294
146 145 143 139 136 135 132 129 126 122 116 109 99 89 82 78 72 66 57 49 48 50 48 44 46 44 43 51 55 54 58 65 68 66 69 72 66 60 48 38 32 21 22 28 22 11 2 8 10 15 46 67 72 74 72 74 81 82 84 83 60 327 328
152 151 149 144 141 140 137 132 128 125 117 107 97 89 84 80 74 66 56 51 48 46 43 41 43 42 41 47 52 51 53 55 59 66 74 78 72 64 60 56 49 41 40 36 19 9 10 12 12 16 34 62 83 89 84 84 87 89 89 84 80 78 66
161 159 154 148 146 146 143 137 132 127 116 107 100 91 85 81 75 65 56 52 47 44 44 43 45 47 47 52 55 54 53 52 55 66 73 74 71 65 64 63 63 64 64 56 42 34 36 34 39 53 64 77 92 98 93 91 96 94 84 71 72 78 66
166 164 159 155 154 152 149 144 137 128 117 111 104 95 90 88 78 68 60 53 49 46 47 45 45 48 47 46 46 47 51 55 60 69 74 74 70 66 64 61 59 65 67 66 65 61 54 47 43 58 79 96 97 92 89 90 89 84 75 67 64 56 42
171 168 164 164 162 157 154 149 141 130 122 117 112 105 102 98 84 73 65 58 54 49 48 46 44 46 42 38 38 41 48 52 53 59 64 69 72 69 63 58 52 60 64 62 68 73 72 67 54 53 69 96 104 98 90 82 76 74 73 70 65 52 42
177 175 172 171 167 162 161 157 147 136 131 128 122 117 116 109 97 83 71 63 60 55 50 46 43 43 40 37 37 41 46 45 44 53 53 52 64 70 68 70 70 77 80 68 59 70 84 92 85 62 48 61 88 104 101 91 78 73 71 65 59 56 47
183 179 178 177 172 170 170 166 158 147 143 142 134 129 129 121 107 94 82 70 63 62 56 48 42 42 42 40 39 41 45 42 40 56 56 50 62 68 71 83 85 91 99 88 73 76 78 85 87 85 71 60 62 86 102 102 89 77 78 73 62 53 43
186 182 183 184 181 179 177 172 167 160 156 152 144 145 146 126 109 100 90 74 66 70 65 55 47 44 41 40 41 41 43 40 38 54 63 64 73 73 77 95 100 108 119 114 105 107 95 79 60 30 79 136 151 104 112 115 96 80 81 85 68 50 35
190 186 187 189 188 184 179 177 175 169 169 166 156 163 174 142 112 97 85 71 63 71 71 66 55 45 40 38 39 41 44 43 43 53 67 81 89 94 105 119 122 126 144 170 163 158 179 179 298 309 315 304 265 176 176 156 113 92 82 85 80 74 61
192 191 192 195 194 189 183 183 181 176 179 178 168 175 194 183 143 108 89 53 11 37 71 76 66 49 38 33 32 36 43 43 44 58 76 99 110 121 129 131 133 133 154 194 201 193 204 219 245 276 295 301 277 189 180 176 142 122 105 98 108 107 84
194 194 196 197 198 197 191 188 186 186 190 188 180 189 208 212 209 203 216 275 294 298 337 72 70 53 31 24 21 25 37 33 34 56 80 100 108 117 126 125 124 124 136 166 177 172 170 171 185 226 256 246 205 166 147 142 154 149 139 132 131 145 219
198 199 200 200 201 202 198 193 191 193 197 196 194 203 217 223 226 234 250 255 260 264 264 294 52 38 9 359 359 358 14 18 23 46 77 100 105 106 112 117 110 106 115 135 133 126 117 114 116 103 112 144 159 155 139 140 158 158 159 165 190 267 278
204 204 205 204 204 205 203 199 196 197 201 203 204 211 222 230 233 236 245 250 253 253 250 260 286 290 296 303 311 313 317 335 356 47 81 100 108 107 98 99 98 93 86 99 108 103 99 95 89 84 95 116 134 131 129 166 173 165 226 276 291 298 304
208 208 209 209 208 208 209 208 204 202 206 208 210 217 225 231 233 235 242 248 253 252 250 255 258 252 261 270 268 264 257 253 248 179 138 130 134 135 130 112 103 98 95 108 99 92 88 84 81 82 86 87 82 73 75 77 58 309 289 300 309 307 306
212 211 213 214 214 213 213 214 212 211 213 215 217 223 227 231 233 236 242 248 252 252 252 255 254 250 252 253 251 244 231 223 226 214 180 170 169 164 157 144 130 129 134 116 92 82 78 77 76 76 77 79 77 73 74 69 55 36 11 3 352 337 329
215 215 215 217 218 217 216 217 216 216 217 218 219 224 227 230 234 238 243 248 249 250 253 254 252 250 250 251 249 242 231 227 229 223 198 173 169 165 156 149 143 135 126 103 89 81 73 69 64 61 67 74 70 61 58 54 44 34 29 21 8 0 356
217 217 218 219 220 221 220 219 218 218 218 218 222 226 228 232 236 240 244 248 247 249 253 250 244 243 241 240 242 242 239 236 233 230 211 175 165 161 151 151 152 135 121 109 96 85 75 65 57 53 64 70 57 41 36 33 25 18 16 11 6 3 357
220 220 220 221 222 224 225 224 222 220 218 219 224 227 231 236 239 241 243 244 243 247 252 249 246 244 241 238 236 236 235 235 240 246 231 182 165 168 154 144 145 134 124 119 106 94 82 69 59 55 59 59 46 33 28 18 11 8 4 1 1 360 355
223 223 222 222 223 225 228 229 227 223 220 221 225 228 231 237 241 242 242 242 241 243 245 246 246 246 245 242 236 230 229 233 242 252 250 207 166 165 166 144 134 131 129 120 110 101 90 77 68 58 46 37 24 18 17 12 7 4 359 357 357 355 356
227 226 226 225 225 225 227 229 228 224 221 222 226 229 232 236 239 241 241 241 240 240 241 243 244 244 243 239 231 227 229 230 230 240 258 254 183 146 156 160 137 133 135 125 113 104 91 77 63 46 33 21 10 7 7 6 3 358 352 352 356 359 4
231 230 230 229 228 227 227 229 228 224 222 224 227 230 233 235 237 239 239 238 236 237 239 242 243 242 237 232 227 226 226 223 220 225 242 256 247 135 126 148 147 143 141 127 115 106 93 78 56 36 25 15 7 3 2 359 356 353 351 357 12 22 20
235 234 234 233 232 230 229 229 228 225 224 224 227 230 233 234 235 237 237 236 235 236 238 241 243 239 232 228 226 223 220 217 217 219 224 239 247 231 101 126 156 157 149 133 120 109 93 75 52 34 24 17 11 6 3 358 356 359 6 19 34 35 19
238 237 237 236 235 233 231 230 229 227 224 224 227 231 232 233 234 235 236 236 236 236 239 241 240 234 229 226 223 218 216 214 217 219 220 224 235 261 303 252 177 169 155 141 129 112 93 71 52 43 32 25 19 12 8 6 10 21 31 32 32 29 16
240 239 238 238 238 237 235 232 229 227 225 226 229 232 233 233 233 233 234 235 234 234 237 237 233 229 225 221 217 215 214 214 219 222 217 216 231 262 271 204 178 172 160 150 142 117 84 53 41 42 33 24 21 18 18 24 31 37 38 29 26 25 17
240 240 239 239 239 240 238 234 230 228 227 228 231 233 234 234 234 233 233 232 231 232 233 230 226 224 221 218 215 212 212 219 228 229 222 217 221 219 193 174 173 171 166 162 157 130 63 33 25 27 24 22 24 30 35 40 41 35 26 22 23 23 14
239 240 239 238 239 240 239 235 232 230 228 228 230 231 232 233 233 233 232 230 228 228 228 225 223 222 220 218 214 209 215 227 227 220 214 204 188 172 162 165 172 171 170 174 171 125 34 19 14 20 26 29 35 43 48 49 43 29 19 18 17 16 6
240 240 238 238 239 239 239 236 233 231 230 230 230 230 231 231 229 228 228 225 221 224 226 223 221 222 221 218 214 216 225 225 208 198 196 186 176 170 164 166 171 173 179 189 194 282 2 4 11 22 30 35 41 44 44 42 34 23 19 13 3 1 356
242 241 240 240 240 238 238 237 235 233 232 231 230 229 229 229 227 226 225 221 219 224 227 223 222 223 220 216 218 226 229 216 203 202 201 189 183 182 180 179 177 178 187 200 218 293 340 355 11 22 28 34 38 38 32 26 18 13 12 6 349 348 352
242 242 242 243 242 239 238 237 235 233 232 231 230 229 229 229 227 223 220 217 219 222 223 222 223 221 216 218 226 229 223 213 210 211 208 198 193 191 190 191 188 187 197 217 239 295 341 359 9 15 21 29 32 28 22 15 7 1 0 355 344 342 345
244 244 244 244 242 239 237 237 235 233 231 230 228 226 226 225 220 212 210 213 219 222 222 225 224 217 214 221 228 225 221 218 216 213 210 206 203 198 196 198 198 199 211 232 246 295 3 2 359 5 16 22 21 14 8 2 354 346 343 341 339 337 336
245 246 245 243 241 239 237 237 236 235 232 230 227 223 222 218 208 202 208 217 222 222 222 222 219 216 219 226 225 221 220 219 216 214 214 212 208 205 204 205 206 209 221 239 240 220 17 350 344 354 6 10 6 1 354 346 339 335 335 336 337 334 330
245 245 245 243 241 238 235 234 235 234 231 227 222 219 216 210 200 200 214 223 223 219 215 214 214 216 221 224 221 218 217 216 215 215 216 214 211 210 210 208 209 214 221 225 218 205 295 308 313 329 343 348 347 344 340 335 333 333 334 335 335 333 330
242 242 242 241 239 237 235 233 231 228 224 218 214 212 208 202 201 212 224 227 223 216 213 212 213 215 219 218 215 214 213 210 208 208 210 211 212 214 214 210 210 216 219 212 205 209 245 267 283 304 318 325 329 330 331 332 332 334 334 335 334 332 331